Wind_Speed
16 17 16 16 15 16 16 14 13 13 14 13 14 15 16 16 16 18 20 19 18 18 17 16 16 20 21 19 18 17 17 17 16 19 17 15 14 13 13 12 12 14 12
22 18 17 16 15 15 15 13 11 13 12 13 12 15 16 16 16 17 18 18 17 16 16 16 18 19 19 20 20 19 19 18 16 15 14 13 12 11 12 10 12 13 12
23 20 17 17 15 14 13 12 12 12 11 12 12 12 14 15 16 15 16 16 15 15 15 18 19 18 18 18 17 17 18 16 15 14 11 13 12 11 11 10 11 12 12
25 21 19 17 16 14 13 12 12 11 12 11 11 13 13 14 15 15 14 14 14 14 14 17 18 17 16 15 15 15 15 15 15 15 13 13 10 11 11 11 12 12 12
24 21 19 18 16 14 13 12 11 10 9 10 11 12 13 12 12 15 14 14 14 14 14 15 16 16 16 15 14 14 15 13 11 12 12 11 10 12 12 12 11 11 12
25 21 19 18 16 15 13 12 11 10 9 9 10 11 11 12 12 12 13 13 12 13 13 15 14 14 13 12 12 11 11 8 5 9 11 12 12 11 12 11 10 10 11
27 22 20 17 15 14 13 12 11 10 10 9 9 10 9 10 10 11 10 11 10 10 11 12 12 13 13 11 9 9 9 6 8 8 10 11 13 12 10 9 10 10 11
28 24 21 17 15 14 13 12 11 10 9 10 10 10 9 9 8 11 10 10 10 9 9 10 10 11 10 10 7 7 6 5 8 12 10 12 12 11 10 10 10 10 10
26 23 21 19 16 14 12 10 9 9 9 9 10 9 9 8 9 8 9 9 9 9 10 9 10 11 10 9 9 7 4 6 13 12 12 13 11 10 10 11 11 12 10
25 23 21 19 16 14 12 10 9 8 8 8 9 9 10 9 8 8 8 8 8 8 7 7 8 8 8 9 8 5 3 4 13 13 14 10 9 11 12 12 10 10 10
23 22 21 19 17 15 13 12 10 9 9 8 8 7 8 10 10 9 9 9 8 8 8 7 7 8 8 8 8 5 5 7 16 12 9 8 11 12 13 12 11 10 10
26 25 22 20 18 16 14 11 10 8 7 7 8 8 8 9 10 10 9 8 9 9 10 10 10 9 8 10 10 9 9 8 12 6 10 10 12 13 15 14 12 13 12
30 26 25 22 19 17 15 12 11 9 9 8 9 8 7 10 11 9 9 8 10 10 10 10 10 10 10 11 12 11 9 10 11 12 11 11 14 18 15 15 15 15 15
27 28 25 23 22 19 16 15 12 10 7 8 10 10 7 8 11 11 11 10 11 12 12 12 12 10 11 13 12 11 10 12 13 16 16 16 15 20 20 17 17 17 17
27 28 26 24 22 20 16 14 12 9 8 8 7 7 6 10 8 12 10 11 12 11 14 13 13 13 12 12 13 14 14 14 14 15 16 17 17 20 25 19 17 19 19
26 27 26 25 22 19 19 16 13 9 8 8 9 7 5 6 8 6 8 10 10 12 11 13 14 14 16 16 17 17 17 18 16 16 17 18 17 20 21 24 21 19 20
25 28 26 25 21 20 19 18 15 11 8 8 8 7 6 8 7 6 8 11 10 9 9 12 13 16 17 18 20 19 20 21 21 21 22 21 18 20 20 20 23 24 23
17 26 24 21 20 19 19 15 14 14 8 8 7 7 7 7 7 6 7 9 8 7 8 9 12 16 16 15 17 17 18 18 21 21 21 23 24 21 24 22 22 24 25
15 23 22 17 16 17 15 14 12 13 9 11 10 10 9 8 7 8 8 8 7 8 9 9 11 12 12 12 14 15 17 18 19 20 21 23 25 23 23 21 27 24 24
15 22 18 20 15 17 15 12 14 13 11 11 12 14 12 11 10 9 9 8 10 11 11 10 12 13 14 13 15 17 17 17 18 19 20 21 20 22 22 22 21 26 24
15 22 20 17 15 18 16 14 14 15 15 13 13 11 15 14 13 14 12 11 13 13 14 13 12 14 14 12 12 13 13 14 16 17 21 21 21 22 20 20 20 24 27
22 18 24 22 20 21 21 17 14 12 10 14 13 11 13 14 12 11 11 12 12 14 12 12 13 12 14 12 5 3 3 5 4 5 8 15 17 17 18 20 19 21 24
17 16 20 22 22 24 23 20 16 12 10 8 13 14 13 11 12 16 14 11 10 11 13 12 11 12 15 15 10 6 1 3 5 4 3 6 8 14 18 16 19 18 20
11 16 16 19 19 19 22 19 17 17 12 9 10 10 8 6 4 4 8 10 9 10 10 11 10 12 13 12 6 8 11 7 1 4 0 6 13 9 11 13 17 18 18
12 14 15 17 18 19 21 19 17 12 9 8 5 4 7 7 10 12 9 6 6 6 6 9 10 10 8 10 10 6 6 8 8 5 4 3 9 10 11 12 13 14 16
16 13 11 11 15 17 17 18 12 8 10 8 5 3 5 5 3 3 2 2 2 3 4 3 4 4 5 6 7 9 8 5 3 4 3 5 7 13 10 11 16 18 21
Wind_Direction
154 150 144 137 136 132 127 122 115 108 105 102 106 106 106 108 103 103 106 105 105 105 106 107 109 114 109 110 104 107 114 115 116 109 107 110 112 108 103 100 101 101 99
149 151 150 142 142 139 135 133 125 115 108 110 109 110 109 113 108 105 107 110 108 106 105 106 112 115 111 109 110 112 110 113 114 109 113 110 109 107 98 112 110 115 109
149 153 146 144 141 139 138 132 127 117 118 119 118 120 118 119 118 114 114 116 115 108 102 102 108 117 115 111 117 111 110 116 120 117 122 113 110 107 107 117 121 118 114
149 150 145 141 140 137 135 132 129 126 120 118 122 129 124 124 128 126 128 124 119 110 106 103 110 114 117 117 115 117 111 113 114 119 117 110 108 114 122 117 119 120 115
151 150 147 146 142 140 138 136 133 129 131 126 120 126 126 127 130 131 133 134 130 125 120 114 115 120 121 122 124 125 125 112 113 120 122 127 129 123 126 122 123 119 118
152 149 151 151 152 150 148 143 136 140 139 133 131 131 136 132 136 133 137 136 136 134 132 125 128 125 128 136 134 136 135 127 117 141 137 142 140 140 134 132 138 132 129
156 154 159 159 155 152 149 148 142 137 143 144 142 137 136 135 136 137 141 142 142 138 137 138 132 130 132 132 125 121 113 138 141 163 163 154 149 148 135 142 146 143 139
161 163 163 162 159 158 156 155 151 148 143 149 153 152 148 146 146 144 145 148 151 154 154 148 144 147 151 147 138 130 159 176 203 177 166 175 164 143 147 161 160 154 145
166 167 166 166 166 167 164 163 158 155 151 147 155 159 155 156 159 154 156 160 163 164 169 169 165 169 167 165 167 161 164 205 197 173 187 191 169 164 173 178 177 165 155
172 174 174 172 173 175 172 172 174 170 165 166 162 166 166 166 169 168 169 169 177 182 185 188 185 182 183 181 189 187 189 156 174 191 202 193 188 187 191 191 191 178 170
181 184 182 181 181 182 183 181 188 190 184 179 180 179 180 180 178 177 184 180 187 196 203 210 214 207 204 200 198 202 212 190 191 194 208 198 206 202 202 202 197 203 191
189 190 190 188 188 188 189 190 192 201 192 196 196 196 206 201 196 192 193 190 197 206 208 212 218 226 228 220 214 215 233 206 199 221 215 218 218 221 210 206 210 211 213
193 193 193 192 193 194 194 198 205 202 203 206 212 215 227 229 213 211 212 205 213 216 218 223 224 228 234 237 239 237 232 240 246 248 238 251 236 230 222 222 222 220 220
197 198 199 196 195 198 199 204 206 207 220 216 219 224 232 231 216 213 219 222 223 225 230 226 232 231 240 244 242 234 252 247 254 259 253 250 250 236 234 235 233 227 222
200 199 202 203 201 202 204 206 204 205 219 225 218 220 236 244 240 220 220 231 235 234 238 239 244 247 249 247 252 256 260 257 254 254 246 256 254 243 241 242 236 235 232
208 204 208 209 213 210 213 218 212 214 221 232 236 236 253 228 245 252 227 233 236 245 237 250 255 264 258 255 256 260 265 262 261 262 254 252 263 255 249 242 244 242 240
224 210 211 215 217 223 223 225 222 214 214 229 226 224 245 237 230 241 244 255 246 253 249 251 257 260 260 258 259 259 264 266 258 257 255 260 258 245 241 239 243 242 244
196 205 200 204 221 224 220 224 197 199 216 213 221 212 208 218 221 234 246 258 270 250 247 257 265 267 258 260 263 264 265 263 261 258 257 254 255 248 240 239 243 243 245
195 184 181 182 196 205 212 197 192 200 210 218 221 223 223 233 233 241 246 258 251 250 261 266 269 276 270 275 276 275 271 270 260 259 259 253 252 250 251 247 242 245 246
201 183 198 197 184 208 212 206 201 205 217 224 235 236 236 242 244 245 253 259 264 256 259 261 267 270 277 280 285 284 282 278 270 263 257 256 256 252 257 257 246 246 250
195 196 210 204 201 204 205 195 201 215 232 242 254 253 247 248 248 247 247 244 249 258 268 258 276 263 278 287 291 306 305 286 271 269 258 258 259 262 254 257 252 246 250
216 192 192 221 216 212 211 212 215 229 244 247 257 251 249 245 242 253 249 248 247 253 263 273 264 262 277 283 272 312 332 322 323 298 260 256 258 262 260 251 251 258 255
230 229 226 212 202 211 207 218 228 247 247 238 237 241 244 242 253 255 258 255 262 249 262 255 267 261 275 270 258 241 296 254 329 347 322 307 277 247 253 251 242 250 259
247 215 204 201 209 206 209 227 228 231 238 241 242 249 255 248 214 254 266 265 269 269 274 272 276 270 280 292 295 258 256 260 244 319 331 302 300 288 268 255 237 254 262
233 194 200 199 210 206 217 216 229 231 226 222 225 267 253 260 260 304 292 276 286 278 284 280 264 264 280 296 296 292 278 271 267 230 294 310 304 288 270 273 256 244 246
229 202 193 201 212 218 214 221 232 210 208 205 216 234 270 257 251 312 60 84 85 53 15 353 306 295 291 289 288 276 261 266 259 227 245 278 263 302 274 268 254 247 251
Height
800 801 802 803 803 803 803 804 805 805 805 806 805 804 804 804 804 805 805 806 805 807 809 809 810 812 811 813 814 816 818 818 821 820 822 824 824 825 826 827 829 828 828
798 801 803 804 805 806 805 806 807 807 807 807 808 808 807 808 808 809 810 810 809 810 811 813 814 814 816 817 818 820 819 822 824 824 825 826 827 827 827 830 830 830 832
799 803 804 806 807 808 808 809 809 809 809 809 810 810 811 811 811 812 812 812 812 814 814 815 816 819 819 819 822 822 822 824 825 826 828 827 828 829 830 834 834 834 834
800 804 806 807 809 809 810 811 811 811 810 811 811 811 813 813 813 814 815 814 814 815 815 817 819 819 820 822 824 825 826 827 826 827 831 829 831 832 834 835 837 837 836
802 805 807 809 810 811 811 812 813 813 812 813 813 814 815 816 816 816 817 818 819 819 818 819 820 822 823 825 826 827 828 829 829 829 831 832 834 834 835 836 839 839 838
804 806 808 810 810 811 812 813 814 815 815 815 815 816 817 817 818 819 820 821 822 822 822 821 824 824 827 829 828 829 828 828 830 833 833 833 834 836 836 837 840 840 840
804 806 808 810 811 812 813 814 815 816 817 817 817 817 818 819 820 821 823 824 824 825 825 825 825 827 828 829 830 829 831 833 831 834 836 836 836 838 837 840 842 842 842
803 806 808 810 812 813 814 815 816 817 818 819 819 819 820 821 821 822 824 826 826 827 827 828 829 828 829 830 831 832 833 834 834 833 835 838 838 838 839 842 843 843 843
806 807 809 811 812 814 815 817 818 818 819 820 820 821 821 821 823 824 825 826 827 828 829 830 830 830 831 832 834 834 833 835 835 834 837 839 838 838 841 843 844 844 844
808 809 810 811 813 815 817 818 819 820 821 821 821 821 822 823 824 824 826 827 828 829 830 831 832 832 834 836 836 836 835 834 834 836 838 837 837 839 842 844 845 845 845
809 810 811 812 813 815 817 818 819 821 822 822 823 823 824 824 825 826 826 828 829 830 831 832 832 832 834 834 835 835 835 837 837 838 836 836 838 840 842 844 844 846 846
806 807 810 811 813 815 817 818 820 822 824 824 825 825 825 826 827 827 828 829 830 831 833 833 832 833 833 834 835 836 836 838 838 837 837 837 839 840 841 841 842 844 846
802 807 807 809 812 814 816 817 819 822 823 823 824 825 826 826 826 828 829 829 829 830 831 832 832 832 832 832 833 835 836 836 836 836 837 838 838 838 838 839 840 842 844
803 805 808 809 810 813 815 817 819 822 822 823 824 825 825 825 826 826 827 829 829 830 831 832 832 832 831 831 831 832 833 833 833 834 836 836 836 836 836 837 839 840 841
802 804 807 809 810 812 814 816 818 820 823 823 824 825 825 825 825 825 826 827 828 829 829 829 830 830 830 830 830 830 831 832 832 832 832 833 833 832 833 836 837 837 839
802 803 805 808 811 813 814 816 818 820 822 823 824 824 823 823 824 824 825 826 826 827 828 828 829 829 829 829 829 829 829 829 829 829 829 830 830 831 832 833 835 836 837
803 801 803 809 812 813 814 816 818 820 821 821 822 822 822 822 823 824 825 825 825 826 826 826 827 827 827 827 827 826 827 826 826 826 827 827 827 828 829 829 830 832 834
802 801 802 807 811 814 814 816 818 820 819 820 821 820 821 821 821 822 823 824 825 825 825 824 825 825 824 824 824 824 823 823 824 823 823 823 822 823 824 826 826 828 828
801 800 801 806 809 813 816 818 819 819 819 819 819 819 820 821 821 821 822 823 824 824 824 824 823 823 822 821 821 821 821 820 819 819 819 819 818 819 820 821 822 823 823
800 801 799 805 808 814 817 817 818 818 818 817 817 818 819 820 821 820 821 821 822 822 821 822 822 822 821 820 819 818 816 816 814 813 814 815 815 815 816 816 817 817 817
801 799 797 804 806 812 815 815 816 815 815 816 816 816 817 818 819 818 818 819 819 819 819 819 819 819 819 818 817 815 812 810 809 808 809 811 811 811 811 811 812 812 811
801 799 798 800 806 809 812 813 814 814 813 814 814 814 815 816 817 817 816 816 815 815 816 817 818 817 816 816 816 816 814 809 806 804 805 806 807 807 807 807 808 808 807
796 795 797 800 803 806 809 810 812 813 812 812 811 811 813 814 815 816 815 813 813 812 813 814 815 816 815 814 814 815 816 817 810 805 804 805 804 805 804 803 803 802 802
792 791 795 798 801 804 807 809 811 811 811 811 809 811 812 814 814 815 815 813 812 812 812 812 813 814 813 810 810 810 811 811 812 810 805 804 804 803 802 801 800 799 800
793 793 795 797 799 802 805 809 810 809 808 809 808 809 811 812 812 812 812 811 810 810 809 808 809 809 809 809 809 808 809 809 809 810 808 804 802 802 800 798 797 796 796
792 791 792 795 799 802 805 808 809 807 807 807 809 809 810 810 811 808 810 810 810 808 808 807 807 807 807 807 807 806 807 807 806 807 807 804 802 797 796 795 794 793 794